| time (UTC) | temp F | wind direction | speed knots | gust knots | rain 1hr in | rain 24hr in | rain mn in | humidity % | barometer mb |
| 20260504201542 | 68 | 136 | 7.0 | 14.8 | 0.00 | 0.00 | 0.00 | 37 | 1007.7 |
| 20260504200044 | 69 | 239 | 6.1 | 15.6 | 0.00 | 0.00 | 0.00 | 36 | 1007.7 |
| 20260504194541 | 68 | 214 | 7.0 | 13.0 | 0.00 | 0.00 | 0.00 | 38 | 1007.9 |
| 20260504193037 | 68 | 204 | 6.1 | 16.5 | 0.00 | 0.00 | 0.00 | 37 | 1007.9 |
| 20260504191544 | 68 | 227 | 7.8 | 22.6 | 0.00 | 0.00 | 0.00 | 37 | 1008.3 |
| 20260504190044 | 66 | 210 | 7.0 | 17.4 | 0.00 | 0.00 | 0.00 | 40 | 1008.3 |
| 20260504184543 | 66 | 224 | 6.1 | 19.1 | 0.00 | 0.00 | 0.00 | 38 | 1008.6 |
| 20260504183040 | 67 | 136 | 8.7 | 16.5 | 0.00 | 0.00 | 0.00 | 37 | 1008.2 |
| 20260504181544 | 67 | 181 | 7.8 | 16.5 | 0.00 | 0.00 | 0.00 | 37 | 1008.6 |
| 20260504180037 | 66 | 211 | 8.7 | 17.4 | 0.00 | 0.00 | 0.00 | 39 | 1008.5 |
| 20260504174536 | 67 | 179 | 7.8 | 20.9 | 0.00 | 0.00 | 0.00 | 38 | 1008.7 |
| 20260504173038 | 67 | 160 | 6.1 | 16.5 | 0.00 | 0.00 | 0.00 | 40 | 1008.7 |
| 20260504171544 | 66 | 187 | 5.2 | 22.6 | 0.00 | 0.00 | 0.00 | 41 | 1009.1 |
| 20260504081547 | 44 | 248 | 0.9 | 3.5 | 0.00 | 0.00 | 0.00 | 63 | 1010.9 |
| 20260504044535 | 43 | 0 | 0.0 | 0.0 | 0.00 | 0.00 | 0.00 | 75 | 1011.0 |
| 20260504043040 | 42 | 13 | 0.0 | 0.9 | 0.00 | 0.00 | 0.00 | 74 | 1011.1 |
| 20260504041540 | 42 | 0 | 0.0 | 0.0 | 0.00 | 0.00 | 0.00 | 74 | 1011.2 |
| 20260504040042 | 42 | 0 | 0.0 | 0.0 | 0.00 | 0.00 | 0.00 | 72 | 1011.0 |
| 20260504034540 | 41 | 0 | 0.0 | 0.9 | 0.00 | 0.00 | 0.00 | 74 | 1010.9 |
| 20260504033039 | 41 | 0 | 0.0 | 0.9 | 0.00 | 0.00 | 0.00 | 72 | 1010.9 |
| 20260504031538 | 41 | 0 | 0.0 | 0.9 | 0.00 | 0.00 | 0.00 | 71 | 1010.9 |
| 20260504030036 | 42 | 359 | 0.0 | 0.9 | 0.00 | 0.00 | 0.00 | 69 | 1010.9 |
| 20260504024541 | 43 | 0 | 0.0 | 0.9 | 0.00 | 0.00 | 0.00 | 65 | 1010.6 |
| 20260504023043 | 44 | 0 | 0.0 | 0.9 | 0.00 | 0.00 | 0.00 | 59 | 1010.9 |
| 20260504021538 | 44 | 0 | 0.0 | 0.9 | 0.00 | 0.00 | 0.00 | 59 | 1010.9 |
| 20260504020057 | 43 | 0 | 0.0 | 0.0 | 0.00 | 0.00 | 0.00 | 59 | 1010.9 |
| 20260504014548 | 44 | 0 | 0.0 | 0.9 | 0.00 | 0.00 | 0.00 | 58 | 1010.7 |
| 20260504013050 | 44 | 0 | 0.0 | 0.9 | 0.00 | 0.00 | 0.00 | 57 | 1010.5 |
| 20260504011543 | 44 | 0 | 0.0 | 0.9 | 0.00 | 0.00 | 0.00 | 54 | 1010.4 |
| 20260504010043 | 45 | 242 | 0.0 | 0.9 | 0.00 | 0.00 | 0.00 | 51 | 1010.3 |
| 20260504004550 | 45 | 0 | 0.0 | 0.9 | 0.00 | 0.00 | 0.00 | 50 | 1010.1 |
| 20260504003037 | 47 | 0 | 0.0 | 1.7 | 0.00 | 0.00 | 0.00 | 47 | 1010.0 |
| 20260504001545 | 47 | 0 | 0.0 | 3.5 | 0.00 | 0.00 | 0.00 | 48 | 1009.9 |
| 20260504000045 | 47 | 0 | 0.0 | 0.9 | 0.00 | 0.00 | 0.00 | 45 | 1009.7 |
| 20260503234543 | 48 | 0 | 0.0 | 1.7 | 0.00 | 0.00 | 0.00 | 45 | 1009.6 |
| 20260503233042 | 49 | 204 | 1.7 | 6.1 | 0.00 | 0.00 | 0.00 | 40 | 1009.4 |
| 20260503231540 | 50 | 203 | 3.5 | 6.1 | 0.00 | 0.00 | 0.00 | 38 | 1009.3 |
| 20260503230049 | 50 | 174 | 5.2 | 12.2 | 0.00 | 0.00 | 0.00 | 36 | 1009.1 |
| 20260503224536 | 51 | 160 | 2.6 | 9.6 | 0.00 | 0.00 | 0.00 | 34 | 1008.8 |
| 20260503223045 | 52 | 131 | 4.3 | 11.3 | 0.00 | 0.00 | 0.00 | 34 | 1008.9 |
| 20260503221541 | 53 | 200 | 6.1 | 13.0 | 0.00 | 0.00 | 0.00 | 34 | 1008.8 |
| 20260503220047 | 53 | 141 | 3.5 | 9.6 | 0.00 | 0.00 | 0.00 | 35 | 1009.0 |
| 20260503214539 | 53 | 137 | 5.2 | 12.2 | 0.00 | 0.00 | 0.00 | 35 | 1008.8 |
| 20260503213040 | 54 | 205 | 4.3 | 11.3 | 0.00 | 0.00 | 0.00 | 35 | 1008.8 |
| 20260503211537 | 53 | 163 | 3.5 | 8.7 | 0.00 | 0.00 | 0.00 | 40 | 1008.7 |
| 20260503210037 | 52 | 134 | 5.2 | 13.0 | 0.00 | 0.00 | 0.00 | 38 | 1008.9 |
| 20260503204541 | 52 | 217 | 4.3 | 15.6 | 0.00 | 0.00 | 0.00 | 40 | 1008.9 |
| 20260503203052 | 52 | 225 | 4.3 | 16.5 | 0.00 | 0.00 | 0.00 | 39 | 1008.9 |